Location: Newark
(50.0306°N, 2.3272°E)
Time: 08:04:42
(UTC+00:00)

AO-7 - Visible Passes

Search period start: 26 January 2020 00:00
Search period end: 05 February 2020 00:00
Orbit: 1440 x 1458 km, 101.8° (Epoch: 25 January)

Date Brightness Start Highest point End Pass type
(mag) Time Alt. Az. Time Alt. Az. Time Alt. Az.
26 Jan ? 02:05:33 10° NE 02:11:31 21° E 02:13:37 19° ESE visible
26 Jan ? 03:57:06 10° NNE 04:05:33 82° ESE 04:08:32 46° S visible
26 Jan ? 05:50:29 10° N 05:57:34 32° NW 06:03:28 14° WSW visible
26 Jan ? 17:02:03 10° W 17:04:16 11° W 17:06:30 10° WNW visible
27 Jan ? 02:57:25 10° NNE 03:05:16 41° E 03:07:37 35° SE visible
27 Jan ? 04:50:09 10° NNE 04:58:19 59° WNW 05:02:32 31° SW visible
27 Jan ? 06:43:55 10° N 06:49:27 20° NW 06:54:58 10° W visible
28 Jan ? 01:58:49 10° NE 02:04:22 19° E 02:06:41 17° ESE visible
28 Jan ? 03:50:05 10° NNE 03:58:32 76° ESE 04:01:37 44° S visible
28 Jan ? 05:43:24 10° N 05:50:40 34° NW 05:56:32 15° WSW visible
29 Jan ? 02:50:29 10° NNE 02:58:11 38° E 03:00:41 32° SE visible
29 Jan ? 04:43:07 10° NNE 04:51:21 63° WNW 04:55:37 31° SW visible
29 Jan ? 06:36:50 10° N 06:42:36 21° NW 06:48:22 10° W visible
30 Jan ? 01:52:08 10° NE 01:57:11 17° E 01:59:46 15° ESE visible
30 Jan ? 03:43:05 10° NNE 03:51:30 71° ESE 03:54:42 42° S visible
30 Jan ? 05:36:21 10° N 05:43:46 37° NW 05:49:37 16° WSW visible
31 Jan ? 02:43:34 10° NNE 02:51:04 35° E 02:53:47 29° SE visible
31 Jan ? 04:36:05 10° NNE 04:44:23 68° WNW 04:48:42 32° SW visible
31 Jan ? 06:29:44 10° N 06:35:45 23° NW 06:41:44 10° W visible
01 Feb ? 01:45:32 10° NE 01:50:01 15° E 01:52:52 13° ESE visible
01 Feb ? 03:36:06 10° NNE 03:44:28 65° ESE 03:47:48 40° S visible
01 Feb ? 05:29:17 10° NNE 05:36:50 39° NW 05:42:43 17° WSW visible
02 Feb ? 02:36:41 10° NNE 02:43:58 32° E 02:46:53 26° SE visible
02 Feb ? 04:29:02 10° NNE 04:37:24 73° WNW 04:41:49 32° SW visible
02 Feb ? 06:22:40 10° N 06:28:53 24° NW 06:35:05 10° W visible
03 Feb ? 01:39:04 10° NE 01:42:49 13° E 01:45:59 11° ESE visible
03 Feb ? 03:29:06 10° NNE 03:37:25 60° ESE 03:40:54 37° SSE visible
03 Feb ? 05:22:14 10° NNE 05:29:55 42° NW 05:35:50 17° WSW visible
04 Feb ? 02:29:48 10° NE 02:36:51 29° E 02:40:00 23° SE visible
04 Feb ? 04:22:01 10° NNE 04:30:25 78° WNW 04:34:56 31° SSW visible
04 Feb ? 06:15:35 10° N 06:22:01 26° NW 06:28:26 10° W visible
